This demonstration page uses our WeatherBlox Daily Observations layout. Learn more.

Left ArrowRight Arrow

34.16533, -84.80231

Hourly Observations for August 6, 2020

Temp ( °F °C ) Dew Point ( °F °C ) Humidity (%) Winds ( mph kmh ) Pressure ( in mb ) Visibility ( mi km ) Precip ( " mm )
12:53 am 00:53 Clear 74 23.3 71 21.7 91 91 Calm 29.97 1015 8 13 0.00 0.00
1:53 am 01:53 Clear 72 22.2 70 21.1 94 94 Calm 29.96 1015 7 11 0.00 0.00
2:53 am 02:53 Cloudy 75 23.9 71 21.7 88 88 NE 3 6 29.96 1015 10 16 0.00 0.00
3:53 am 03:53 Mostly Clear 75 23.9 70 21.1 84 84 Calm 29.96 1014 10 16 0.00 0.00
4:53 am 04:53 Clear 74 23.3 70 21.1 88 88 Calm 29.97 1015 10 16 0.00 0.00
5:53 am 05:53 Partly Cloudy 74 23.3 70 21.1 88 88 ESE 3 6 29.97 1015 10 16 0.00 0.00
6:53 am 06:53 Clear 74 23.3 70 21.1 88 88 VRB 3 6 29.99 1016 10 16 0.00 0.00
7:53 am 07:53 Mostly Cloudy 74 23.3 69 20.6 85 85 VRB 5 7 30.00 1016 10 16 0.00 0.00
8:53 am 08:53 Partly Cloudy 77 25 70 21.1 79 79 ENE 5 7 30.02 1017 10 16 0.00 0.00
9:53 am 09:53 Mostly Sunny 80 26.7 71 21.7 74 74 E 6 9 30.02 1017 10 16 0.00 0.00
10:53 am 10:53 Partly Cloudy 83 28.3 72 22.2 70 70 VRB 5 7 30.02 1017 10 16 0.00 0.00
11:53 am 11:53 Mostly Sunny 87 30.6 72 22.2 61 61 E 7 11 30.01 1016 10 16 0.00 0.00
12:53 pm 12:53 Mostly Sunny 89 31.7 72 22.2 57 57 VRB 5 7 29.99 1016 10 16 0.00 0.00
1:53 pm 13:53 Mostly Cloudy 90 32.2 71 21.7 54 54 undefined N/A 29.97 1015 10 16 0.00 0.00
2:12 pm 14:12 Mostly Cloudy with Nearby Thunderstorms 91 32.8 70 21.1 50 50 SSE 12 19 29.96 1015 10 16 0.00 0.00
2:27 pm 14:27 Mostly Sunny 93 33.9 70 21.1 47 47 SSE 7 11 29.95 1014 10 16 0.00 0.00
2:53 pm 14:53 Sunny 91 32.8 68 20 47 47 Calm 29.95 1014 10 16 0.00 0.00
3:53 pm 15:53 Mostly Cloudy 95 35 68 20 41 41 SSE 5 7 29.94 1014 10 16 0.00 0.00
4:45 pm 16:45 Mostly Cloudy with Nearby Thunderstorms 86 30 69 20.6 57 57 VRB 3 6 29.95 1014 10 16 0.00 0.00
4:53 pm 16:53 Cloudy with Nearby Thunderstorms 86 30 70 21.1 59 59 VRB 6 9 29.96 1014 10 16 0.00 0.00
5:31 pm 17:31 Mostly Cloudy 85 29.4 71 21.7 63 63 N 9 15 29.95 1014 10 16 0.00 0.00
5:45 pm 17:45 Partly Cloudy with Nearby Thunderstorms 86 30 70 21.1 59 59 N 9 15 29.94 1014 10 16 0.00 0.00
5:53 pm 17:53 Partly Cloudy with Nearby Thunderstorms 86 30 70 21.1 59 59 N 6 9 29.94 1014 10 16 0.00 0.00
6:10 pm 18:10 Sunny 84 28.9 69 20.6 61 61 NE 6 9 29.95 1014 10 16 0.00 0.00
6:53 pm 18:53 Sunny 83 28.3 71 21.7 67 67 NE 3 6 29.96 1015 10 16 0.00 0.00
7:53 pm 19:53 Partly Cloudy 82 27.8 68 20 63 63 Calm 29.96 1015 10 16 0.00 0.00
8:53 pm 20:53 Mostly Clear 80 26.7 68 20 67 67 N 7 11 29.98 1015 10 16 0.00 0.00
9:53 pm 21:53 Clear 75 23.9 68 20 79 79 Calm 29.98 1015 10 16 0.00 0.00
10:53 pm 22:53 Mostly Cloudy 74 23.3 68 20 82 82 S 6 9 30.00 1016 10 16 0.00 0.00
11:53 pm 23:53 Mostly Cloudy 76 24.4 69 20.6 79 79 N 5 7 29.99 1016 10 16 0.00 0.00

Powered by AerisWeather